Tracking 30995 objects as of 7-Jul-2025
HD Live streaming from Space Station
objects crossing your sky now

COSMOS 1814

Track COSMOS 1814 now!
10-day predictions
COSMOS 1814 is classified as:


NORAD ID: 17303
Int'l Code: 1987-006A
Perigee: 761.7 km
Apogee: 797.1 km
Inclination: 74.1 °
Period: 100.3 minutes
Semi major axis: 7150 km
RCS: 2.1989 m2 (large)
Launch date: January 21, 1987
Source: Commonwealth of Independent States (former USSR) (CIS)
Launch site: PLESETSK MISSILE AND SPACE COMPLEX (PKMTR)
Your satellite tracking list
Your tracking list is empty




NASA's NSSDC Master Catalog

Two Line Element Set (TLE):
1 17303U 87006A   25187.38629995  .00000126  00000-0  52223-4 0  9996
2 17303  74.0543 171.6116 0024763 353.4766   6.6060 14.35853878 12607
Source of the keplerian elements: AFSPC